Location: Haliburton Scout Reserve
(45.0900°N, 78.3200°W)
Time: 18:20:50
(UTC-05:00)

Courier 1B - Pass Details

Date: 05 December 2023
Orbit: 962 x 1209 km, 28.3° (Epoch: 23 February)

Event Time Altitude Azimuth Distance (km) Brightness Sun altitude
Rises 13:14:32 0° 247° (WSW) 3,654 11.1 20.6°
Reaches altitude 10° 13:19:01 10° 219° (SW) 2,687 11.4 20.4°
Maximum altitude 13:21:29 12° 196° (SSW) 2,512 12.3 20.2°
Drops below altitude 10° 13:23:57 10° 173° (S) 2,684 11.1 20.1°
Sets 13:28:26 0° 145° (SE) 3,646 11.0 19.8°
